Regional Weather Roundup
Issued by NWS Mt. Holly, NJ

Home | Current Version | Previous Version | Text Only | Print | Product List | Glossary On
Versions: 1 2 3 4 5 6 7 8 9 10 11 12 13 14 15 16 17 18 19 20 21 22 23 24 25 26 27
000
ASUS41 KPHI 241012
RWRPHI

REGIONAL WEATHER ROUNDUP
NATIONAL WEATHER SERVICE MOUNT HOLLY NJ
600 AM EDT SUN SEP 24 2017

NOTE:  "FAIR" INDICATES FEW OR NO CLOUDS BELOW 12,000 FEET WITH NO
SIGNIFICANT WEATHER AND/OR OBSTRUCTIONS TO VISIBILITY.

 * = STATION DOES NOT REPORT PRECIPITATION (E.G. RAIN, SNOW, ETC.)
        OR FOG.

NJZ015>026-241100-
SOUTHERN NEW JERSEY

CITY           SKY/WX    TMP DP  RH WIND       PRES   REMARKS
POMONA         CLEAR     64  60  87 NW3       30.05R
WILDWOOD*      CLEAR     62  61  96 CALM      30.05R
MILLVILLE      CLEAR     65  61  87 CALM      30.05R
WRIGHTSTOWN    CLEAR     66  57  72 NW3       30.04R
MOUNT HOLLY    CLEAR     60  60 100 CALM      30.06R
TRENTON        CLEAR     68  61  78 N6        30.06R

$$
NJZ001>014-241100-
NORTHERN NEW JERSEY

CITY           SKY/WX    TMP DP  RH WIND       PRES   REMARKS
SUSSEX         CLEAR     58  57  97 CALM      30.10R
ANDOVER*         N/A     59  58  96 CALM      30.11R
MORRISTOWN     CLEAR     57  57 100 CALM      30.07S
NEWARK         CLEAR     69  58  67 N3        30.05S
TETERBORO      CLEAR     66  59  78 CALM      30.05R
CALDWELL       CLEAR     62  61  96 CALM      30.08R
ALLAIRE*       CLEAR     63  58  83 CALM      30.07R
TOMS RIVER*    CLEAR     61  58  90 CALM      30.06R

$$
PAZ043-044-047-054-055-060>062-066>071-241100-
EASTERN PENNSYLVANIA

CITY           SKY/WX    TMP DP  RH WIND       PRES   REMARKS
PHILADELPHIA   CLEAR     71  60  68 N6        30.06R
NORTH PHILA    CLEAR     70  60  70 CALM      30.08R
BLUE BELL*     CLEAR     59  59 100 CALM      30.10R
DOYLESTOWN     CLEAR     66  61  84 CALM      30.08R
QUAKERTOWN*    CLEAR     59  59 100 CALM      30.10R
PERKASIE*      FAIR      63  63 100 CALM      30.10R
POTTSTOWN      CLEAR     61  61 100 CALM      30.10R
LANCASTER      CLEAR     63  61  93 W6        30.10R
COATESVILLE    CLEAR     70  61  73 N5        30.11R
READING        CLEAR     63  63 100 CALM      30.09R
ALLENTOWN      CLEAR     62  58  86 CALM      30.10R
MOUNT POCONO   CLEAR     66  60  81 N5        30.16R
HAZLETON       CLEAR     63  61  94 N3        30.19R
LEHIGHTON      FAIR      55  55 100 CALM      30.12R
WILKES BARRE   CLEAR     61  59  93 E5        30.15R

$$
DEZALL-MDZ008-012-015-019-020-241100-
DELAWARE AND EASTERN MARYLAND

CITY           SKY/WX    TMP DP  RH WIND       PRES   REMARKS
WILMINGTON     CLEAR     67  61  81 N7        30.07R
GEORGETOWN     CLEAR     62  60  93 CALM      30.06R
EASTON         CLEAR     64  63  94 CALM      30.09R
PATUXENT       CLEAR     65  65 100 W3        30.05R
OCEAN CITY     CLEAR     63  63 100 N8        30.04S
WALLOPS ISLAND PTCLDY    66  66 100 CALM      30.04R FOG
CAMBRIDGE      CLEAR     61  61 100 N6        30.05S
SALISBURY      PTCLDY    63  63 100 CALM      30.04S

$$
PAZ001-021-NYZ056-072-MDZ011-DCZ001-241100-
OTHER NEARBY LOCATIONS

CITY           SKY/WX    TMP DP  RH WIND       PRES   REMARKS
HARRISBURG     CLEAR     65  62  90 N3        30.10R
STATE COLLEGE  PTCLDY    59  59 100 CALM      30.17R
WILLIAMSPORT   CLEAR     63  61  93 NW3       30.14R
BINGHAMTON     PTCLDY    64  60  87 W6        30.17R
NEW YORK CITY  CLEAR     70  59  68 W3        30.08S
BALTIMORE      PTCLDY    63  60  90 CALM      30.07R
WASHINGTON DC  MOCLDY    67  61  81 N9        30.08R

$$




USA.gov is the U.S. government's official web portal to all federal, state and local government web resources and services.